sat.trackr.live / text

‹ back to catalog

STARLINK-3295

NORAD 50840 · 2022-001AP

PAYLOAD ACTIVE UNKNOWN

§ Identity

Operator
Country
US
Launch date
2022-01-06
Launch site
AFETR
Launch vehicle
Mass (kg)
RCS (m²)

Purposes: comms

External: N2YO · Heavens-Above · Gunter

§ Orbital elements

Epoch: 2026-05-24T12:35:26.099232Z

Period
95.44 min
Inclination
53.2163°
Eccentricity
0.0001012
Mean motion
15.08837621 rev/d
Perigee alt
539.1 km
Apogee alt
540.5 km
Semi-major
6,917.9 km
B*
3.0376e-5
RAAN
198.6838°
Arg perigee
79.3331°
Mean anomaly
280.7775°
Rev number
24,170

§ Raw data

STARLINK-32951 50840U 22001AP  26144.52460763  .00000196  00000+0  30376-4 0  99902 50840  53.2163 198.6838 0001012  79.3331 280.7775 15.08837621241703

JSON: /api/v1/satellites/50840 · /tle

For live sub-satellite position, see the globe view (requires WebGL).

§ Visibility from observer

Set your observer location to see the next 7 days of passes ≥ 10°. The values pass through the URL so the page stays shareable.

No JS? Fill the form by hand. The geolocation button needs JavaScript.